This demonstration page uses our WeatherBlox Daily Observations layout. Learn more.

Left ArrowRight Arrow

41.55636, -103.73856

Hourly Observations for December 15, 2021

Temp ( °F °C ) Dew Point ( °F °C ) Humidity (%) Winds ( mph kmh ) Pressure ( in mb ) Visibility ( mi km ) Precip ( " mm )
12:58 am 00:58 Clear 45 7.4 13 -10.6 27 27 S 20 31 29.53 1000 10 16 0.00 0.00
1:58 am 01:58 Clear 41 5.1 15 -9.4 35 35 SSW 12 19 29.47 998 10 16 0.00 0.00
2:58 am 02:58 Clear 45 7.1 16 -9.1 31 31 SSW 20 31 29.44 997 10 16 0.00 0.00
3:58 am 03:58 Clear 42 5.8 16 -9.1 34 34 SSW 23 37 29.39 995 10 16 0.00 0.00
4:58 am 04:58 Clear 42 5.6 19 -7.3 39 39 SSW 24 39 29.36 994 10 16 0.00 0.00
5:58 am 05:58 Clear 40 4.4 21 -6.2 46 46 SSW 17 28 29.33 993 10 16 0.00 0.00
6:58 am 06:58 Clear 47 8.2 22 -5.3 38 38 SSW 29 46 29.28 992 10 16 0.00 0.00
7:58 am 07:58 Sunny 48 8.7 25 -3.9 41 41 SSW 25 41 29.25 991 10 16 0.00 0.00
8:58 am 08:58 Mostly Sunny 49 9.4 26 -3.1 42 42 WSW 8 13 29.28 992 10 16 0.00 0.00
9:58 am 09:58 Mostly Cloudy 45 7 23 -4.8 43 43 WNW 20 31 29.29 992 10 16 0.00 0.00
10:58 am 10:58 Mostly Cloudy 45 7.1 25 -4 45 45 NW 38 61 29.34 993 10 16 0.00 0.00
11:58 am 11:58 Windy with Rain Showers Likely 31 -0.5 22 -5.6 69 69 NNW 36 57 29.48 998 10 16 0.00 0.00
12:58 pm 12:58 Partly Cloudy 29 -1.4 18 -7.7 63 63 NNW 37 59 29.51 999 10 16 0.00 0.00
1:58 pm 13:58 Mostly Cloudy 30 -1.3 16 -9.1 56 56 NW 46 74 29.58 1002 10 16 0.00 0.00
2:58 pm 14:58 Partly Cloudy 29 -1.8 15 -9.2 57 57 NNW 44 70 29.67 1005 10 16 0.00 0.00
3:58 pm 15:58 Mostly Cloudy 29 -1.7 15 -9.2 57 57 NNW 23 37 29.74 1007 10 16 0.00 0.00
4:58 pm 16:58 Partly Cloudy 27 -2.8 16 -8.9 63 63 NW 29 46 29.80 1009 10 16 0.00 0.00
5:58 pm 17:58 Partly Cloudy 25 -3.7 17 -8.6 69 69 NW 21 33 29.86 1011 10 16 0.00 0.00
6:58 pm 18:58 Mostly Cloudy 26 -3.6 17 -8.2 71 71 NW 14 22 29.95 1014 10 16 0.00 0.00
7:58 pm 19:58 Partly Cloudy 24 -4.5 17 -8.4 74 74 NW 18 30 29.91 1013 10 16 0.00 0.00
8:58 pm 20:58 Clear 25 -4.1 10 -12.3 53 53 NW 13 20 29.90 1013 10 16 0.00 0.00
9:58 pm 21:58 Clear 27 -2.6 6 -14.7 39 39 WNW 30 48 29.91 1013 10 16 0.00 0.00
10:58 pm 22:58 Clear 26 -3.5 3 -16 38 38 WNW 21 33 29.95 1014 10 16 0.00 0.00
11:58 pm 23:58 Clear 27 -3 1 -17.4 32 32 WNW 29 46 30.00 1016 10 16 0.00 0.00

Powered by AerisWeather